TimeCDT,TemperatureF,Dew PointF,Humidity,Sea Level PressureIn,VisibilityMPH,Wind Direction,Wind SpeedMPH,Gust SpeedMPH,PrecipitationIn,Events,Conditions,WindDirDegrees,DateUTC
12:51 AM,81.0,73.0,77,29.93,10.0,SSW,9.2,-,N/A,,Clear,210,2013-07-19 05:51:00
1:51 AM,80.1,73.0,79,29.91,10.0,SW,10.4,-,N/A,,Clear,220,2013-07-19 06:51:00
2:51 AM,79.0,72.0,79,29.89,10.0,SW,6.9,-,N/A,,Clear,220,2013-07-19 07:51:00
3:51 AM,79.0,72.0,79,29.88,10.0,SW,8.1,-,N/A,,Clear,220,2013-07-19 08:51:00
4:51 AM,80.1,71.1,74,29.87,10.0,SW,10.4,-,N/A,,Clear,230,2013-07-19 09:51:00
5:51 AM,81.0,71.1,72,29.87,10.0,WSW,10.4,-,N/A,,Clear,240,2013-07-19 10:51:00
6:51 AM,81.0,71.1,72,29.88,10.0,WSW,11.5,-,N/A,,Clear,240,2013-07-19 11:51:00
7:51 AM,82.9,72.0,69,29.88,10.0,WSW,11.5,20.7,N/A,,Clear,240,2013-07-19 12:51:00
8:51 AM,84.9,71.1,63,29.88,10.0,SW,15.0,20.7,N/A,,Partly Cloudy,230,2013-07-19 13:51:00
9:51 AM,89.1,70.0,53,29.87,10.0,WSW,13.8,21.9,N/A,,Partly Cloudy,240,2013-07-19 14:51:00
10:51 AM,91.0,70.0,50,29.86,10.0,West,17.3,24.2,N/A,,Partly Cloudy,260,2013-07-19 15:51:00
11:51 AM,93.0,71.1,49,29.83,10.0,WSW,19.6,26.5,N/A,,Partly Cloudy,240,2013-07-19 16:51:00
12:51 PM,93.0,70.0,47,29.82,10.0,WSW,19.6,32.2,N/A,,Scattered Clouds,240,2013-07-19 17:51:00
1:51 PM,93.9,68.0,43,29.80,10.0,West,19.6,32.2,N/A,,Scattered Clouds,260,2013-07-19 18:51:00
2:51 PM,95.0,66.9,40,29.78,10.0,WSW,21.9,32.2,N/A,,Scattered Clouds,250,2013-07-19 19:51:00
3:51 PM,95.0,64.9,37,29.76,10.0,West,24.2,34.5,N/A,,Scattered Clouds,260,2013-07-19 20:51:00
4:51 PM,93.0,66.0,41,29.75,10.0,WSW,23.0,31.1,N/A,,Scattered Clouds,250,2013-07-19 21:51:00
5:51 PM,93.0,68.0,44,29.75,10.0,West,21.9,29.9,N/A,,Scattered Clouds,260,2013-07-19 22:51:00
6:51 PM,91.9,69.1,47,29.74,10.0,West,23.0,29.9,N/A,,Scattered Clouds,260,2013-07-19 23:51:00
7:51 PM,89.1,68.0,50,29.75,10.0,WSW,11.5,20.7,N/A,,Scattered Clouds,240,2013-07-20 00:51:00
8:45 PM,89.6,69.8,52,29.77,10.0,WSW,11.5,20.7,N/A,Thunderstorm,Thunderstorm,240,2013-07-20 01:45:00
8:51 PM,88.0,69.1,53,29.75,10.0,SW,10.4,-,N/A,Thunderstorm,Thunderstorm,230,2013-07-20 01:51:00
9:32 PM,73.4,68.0,83,29.84,2.0,NW,38.0,55.2,0.02,Rain-Thunderstorm,Thunderstorms and Rain,310,2013-07-20 02:32:00
9:46 PM,71.6,69.8,94,29.86,3.0,NNW,25.3,40.3,0.29,Rain-Thunderstorm,Heavy Thunderstorms and Rain,330,2013-07-20 02:46:00
9:51 PM,72.0,69.1,91,29.84,2.0,NNW,8.1,34.5,0.50,Rain-Thunderstorm,Heavy Thunderstorms and Rain,330,2013-07-20 02:51:00
10:15 PM,73.4,69.8,88,29.82,10.0,South,6.9,-,0.06,Thunderstorm,Thunderstorm,180,2013-07-20 03:15:00
10:51 PM,73.0,70.0,90,29.80,10.0,WSW,9.2,17.3,0.08,Rain-Thunderstorm,Light Thunderstorms and Rain,240,2013-07-20 03:51:00
11:25 PM,73.4,69.8,88,29.81,10.0,WNW,6.9,-,0.00,,Overcast,290,2013-07-20 04:25:00
11:51 PM,73.9,70.0,87,29.78,10.0,WNW,3.5,-,0.00,,Overcast,290,2013-07-20 04:51:00